Time,TemperatureF,DewpointF,PressureIn,WindDirection,WindDirectionDegrees,WindSpeedMPH,WindSpeedGustMPH,Humidity,HourlyPrecipIn,Conditions,Clouds,dailyrainin,SolarRadiationWatts/m^2,SoftwareType,DateUTC
2013-07-16 00:01:00,69.5,63.1,30.15,North,360,0.0,0.0,80,0.00,,---,0.00,0.00,VWS V14.01,2013-07-16 04:01:00,
2013-07-16 00:06:00,69.4,63.0,30.15,North,360,0.0,0.0,80,0.00,,---,0.00,0.00,VWS V14.01,2013-07-16 04:06:00,
2013-07-16 00:11:00,69.4,62.6,30.15,North,360,0.0,0.0,79,0.00,,---,0.00,0.00,VWS V14.01,2013-07-16 04:11:00,
2013-07-16 00:16:00,69.2,62.8,30.15,North,360,0.0,0.0,80,0.00,,---,0.00,0.00,VWS V14.01,2013-07-16 04:16:00,
2013-07-16 00:21:00,69.2,62.4,30.15,North,360,0.0,0.0,79,0.00,,---,0.00,0.00,VWS V14.01,2013-07-16 04:21:00,
2013-07-16 00:26:00,69.4,62.6,30.14,North,360,0.0,0.0,79,0.00,,---,0.00,0.00,VWS V14.01,2013-07-16 04:26:00,
2013-07-16 00:31:00,69.2,63.1,30.15,North,360,0.0,0.0,81,0.00,,---,0.00,0.00,VWS V14.01,2013-07-16 04:31:00,
2013-07-16 00:36:00,69.0,62.9,30.15,North,360,0.0,0.0,81,0.00,,---,0.00,0.00,VWS V14.01,2013-07-16 04:36:00,
2013-07-16 00:41:00,68.7,63.0,30.14,North,360,0.0,0.0,82,0.00,,---,0.00,0.00,VWS V14.01,2013-07-16 04:41:00,
2013-07-16 00:46:00,68.7,63.0,30.15,North,360,0.0,0.0,82,0.00,,---,0.00,0.00,VWS V14.01,2013-07-16 04:46:00,
2013-07-16 00:51:00,68.7,63.0,30.14,North,360,0.0,0.0,82,0.00,,---,0.00,0.00,VWS V14.01,2013-07-16 04:51:00,
2013-07-16 00:56:00,68.7,63.0,30.15,North,360,0.0,0.0,82,0.00,,---,0.00,0.00,VWS V14.01,2013-07-16 04:56:00,
2013-07-16 01:01:00,68.5,62.8,30.15,North,360,0.0,0.0,82,0.00,,---,0.00,0.00,VWS V14.01,2013-07-16 05:01:00,
2013-07-16 01:06:00,68.5,63.1,30.14,North,360,0.0,0.0,83,0.00,,---,0.00,0.00,VWS V14.01,2013-07-16 05:06:00,
2013-07-16 01:11:00,68.4,63.0,30.15,North,360,0.0,0.0,83,0.00,,---,0.00,0.00,VWS V14.01,2013-07-16 05:11:00,
2013-07-16 01:16:00,68.4,63.0,30.14,North,360,0.0,0.0,83,0.00,,---,0.00,0.00,VWS V14.01,2013-07-16 05:16:00,
2013-07-16 01:21:00,68.4,63.0,30.14,North,360,0.0,0.0,83,0.00,,---,0.00,0.00,VWS V14.01,2013-07-16 05:21:00,
2013-07-16 01:26:00,68.4,63.0,30.14,North,360,0.0,0.0,83,0.00,,---,0.00,0.00,VWS V14.01,2013-07-16 05:26:00,
2013-07-16 01:31:00,68.4,63.0,30.14,North,360,0.0,0.0,83,0.00,,---,0.00,0.00,VWS V14.01,2013-07-16 05:31:00,
2013-07-16 01:36:00,68.4,63.0,30.14,North,360,0.0,0.0,83,0.00,,---,0.00,0.00,VWS V14.01,2013-07-16 05:36:00,
2013-07-16 01:41:00,68.2,62.8,30.14,North,360,0.0,0.0,83,0.00,,---,0.00,0.00,VWS V14.01,2013-07-16 05:41:00,
2013-07-16 01:46:00,68.2,62.8,30.14,North,360,0.0,0.0,83,0.00,,---,0.00,0.00,VWS V14.01,2013-07-16 05:46:00,
2013-07-16 01:51:00,68.2,63.2,30.14,North,360,0.0,0.0,84,0.00,,---,0.00,0.00,VWS V14.01,2013-07-16 05:51:00,
2013-07-16 01:56:00,68.0,62.7,30.14,North,360,0.0,0.0,83,0.00,,---,0.00,0.00,VWS V14.01,2013-07-16 05:56:00,
2013-07-16 02:01:00,68.2,63.2,30.14,North,360,0.0,0.0,84,0.00,,---,0.00,0.00,VWS V14.01,2013-07-16 06:01:00,
2013-07-16 02:06:00,68.2,62.8,30.14,North,360,0.0,0.0,83,0.00,,---,0.00,0.00,VWS V14.01,2013-07-16 06:06:00,
2013-07-16 02:11:00,68.2,63.2,30.14,North,360,0.0,0.0,84,0.00,,---,0.00,0.00,VWS V14.01,2013-07-16 06:11:00,
2013-07-16 02:16:00,68.0,63.0,30.14,North,360,0.0,0.0,84,0.00,,---,0.00,0.00,VWS V14.01,2013-07-16 06:16:00,
2013-07-16 02:21:00,68.0,63.0,30.14,North,360,0.0,0.0,84,0.00,,---,0.00,0.00,VWS V14.01,2013-07-16 06:21:00,
2013-07-16 02:26:00,68.0,63.0,30.14,North,360,0.0,0.0,84,0.00,,---,0.00,0.00,VWS V14.01,2013-07-16 06:26:00,
2013-07-16 02:31:00,67.9,62.9,30.14,North,360,0.0,0.0,84,0.00,,---,0.00,0.00,VWS V14.01,2013-07-16 06:31:00,
2013-07-16 02:36:00,67.9,63.2,30.14,North,360,0.0,0.0,85,0.00,,---,0.00,0.00,VWS V14.01,2013-07-16 06:36:00,
2013-07-16 02:41:00,67.7,63.0,30.14,North,360,0.0,0.0,85,0.00,,---,0.00,0.00,VWS V14.01,2013-07-16 06:41:00,
2013-07-16 02:46:00,67.7,62.7,30.14,North,360,0.0,0.0,84,0.00,,---,0.00,0.00,VWS V14.01,2013-07-16 06:46:00,
2013-07-16 02:51:00,67.5,62.5,30.14,North,360,0.0,0.0,84,0.00,,---,0.00,0.00,VWS V14.01,2013-07-16 06:51:00,
2013-07-16 02:56:00,67.4,62.7,30.14,North,360,0.0,0.0,85,0.00,,---,0.00,0.00,VWS V14.01,2013-07-16 06:56:00,
2013-07-16 03:01:00,67.2,62.9,30.14,North,360,0.0,0.0,86,0.00,,---,0.00,0.00,VWS V14.01,2013-07-16 07:01:00,
2013-07-16 03:06:00,67.0,62.7,30.14,North,360,0.0,0.0,86,0.00,,---,0.00,0.00,VWS V14.01,2013-07-16 07:06:00,
2013-07-16 03:11:00,67.0,62.7,30.14,North,360,0.0,0.0,86,0.00,,---,0.00,0.00,VWS V14.01,2013-07-16 07:11:00,
2013-07-16 03:16:00,66.9,62.6,30.14,North,360,0.0,0.0,86,0.00,,---,0.00,0.00,VWS V14.01,2013-07-16 07:16:00,
2013-07-16 03:21:00,66.7,62.7,30.14,North,360,0.0,0.0,87,0.00,,---,0.00,0.00,VWS V14.01,2013-07-16 07:21:00,
2013-07-16 03:27:00,66.5,62.8,30.14,North,360,0.0,0.0,88,0.00,,---,0.00,0.00,VWS V14.01,2013-07-16 07:27:00,
2013-07-16 03:32:00,66.4,62.7,30.14,North,360,0.0,0.0,88,0.00,,---,0.00,0.00,VWS V14.01,2013-07-16 07:32:00,
2013-07-16 03:37:00,66.2,62.5,30.14,North,360,0.0,0.0,88,0.00,,---,0.00,0.00,VWS V14.01,2013-07-16 07:37:00,
2013-07-16 03:42:00,66.2,62.5,30.14,North,360,0.0,0.0,88,0.00,,---,0.00,0.00,VWS V14.01,2013-07-16 07:42:00,
2013-07-16 03:47:00,66.0,62.7,30.14,North,360,0.0,0.0,89,0.00,,---,0.00,0.00,VWS V14.01,2013-07-16 07:47:00,
2013-07-16 03:52:00,66.0,62.7,30.14,North,360,0.0,0.0,89,0.00,,---,0.00,0.00,VWS V14.01,2013-07-16 07:52:00,
2013-07-16 03:57:00,66.0,63.0,30.14,North,360,0.0,0.0,90,0.00,,---,0.00,0.00,VWS V14.01,2013-07-16 07:57:00,
2013-07-16 04:02:00,66.0,63.0,30.14,North,360,0.0,0.0,90,0.00,,---,0.00,0.00,VWS V14.01,2013-07-16 08:02:00,
2013-07-16 04:07:00,66.0,63.0,30.14,North,360,0.0,0.0,90,0.00,,---,0.00,0.00,VWS V14.01,2013-07-16 08:07:00,
2013-07-16 04:12:00,65.9,62.9,30.14,North,360,0.0,0.0,90,0.00,,---,0.00,0.00,VWS V14.01,2013-07-16 08:12:00,
2013-07-16 04:17:00,65.9,63.2,30.14,North,360,0.0,0.0,91,0.00,,---,0.00,0.00,VWS V14.01,2013-07-16 08:17:00,
2013-07-16 04:22:00,65.9,63.2,30.14,North,360,0.0,0.0,91,0.00,,---,0.00,0.00,VWS V14.01,2013-07-16 08:22:00,
2013-07-16 04:27:00,65.9,63.5,30.14,North,360,0.0,0.0,92,0.00,,---,0.00,0.00,VWS V14.01,2013-07-16 08:27:00,
2013-07-16 04:32:00,65.7,63.0,30.14,North,360,0.0,0.0,91,0.00,,---,0.00,0.00,VWS V14.01,2013-07-16 08:32:00,
2013-07-16 04:37:00,65.6,63.2,30.14,North,360,0.0,0.0,92,0.00,,---,0.00,0.00,VWS V14.01,2013-07-16 08:37:00,
2013-07-16 04:42:00,65.7,63.3,30.13,North,360,0.0,0.0,92,0.00,,---,0.00,0.00,VWS V14.01,2013-07-16 08:42:00,
2013-07-16 04:47:00,65.9,63.5,30.14,North,360,0.0,0.0,92,0.00,,---,0.00,0.00,VWS V14.01,2013-07-16 08:47:00,
2013-07-16 04:52:00,65.9,63.5,30.14,North,360,0.0,0.0,92,0.00,,---,0.00,0.00,VWS V14.01,2013-07-16 08:52:00,
2013-07-16 04:57:00,65.9,63.5,30.14,North,360,0.0,0.0,92,0.00,,---,0.00,0.00,VWS V14.01,2013-07-16 08:57:00,
2013-07-16 05:02:00,65.9,63.5,30.14,North,360,0.0,0.0,92,0.00,,---,0.00,0.00,VWS V14.01,2013-07-16 09:02:00,
2013-07-16 05:07:00,66.2,63.8,30.14,North,360,0.0,0.0,92,0.00,,---,0.00,0.00,VWS V14.01,2013-07-16 09:07:00,
2013-07-16 05:12:00,66.2,63.8,30.14,North,360,0.0,0.0,92,0.00,,---,0.00,0.00,VWS V14.01,2013-07-16 09:12:00,
2013-07-16 05:17:00,66.0,63.6,30.14,North,360,0.0,0.0,92,0.00,,---,0.00,0.00,VWS V14.01,2013-07-16 09:17:00,
2013-07-16 05:22:00,66.2,63.8,30.14,North,360,0.0,0.0,92,0.00,,---,0.00,0.00,VWS V14.01,2013-07-16 09:22:00,
2013-07-16 05:27:00,66.5,64.1,30.14,North,360,0.0,0.0,92,0.00,,---,0.00,0.00,VWS V14.01,2013-07-16 09:27:00,
2013-07-16 05:32:00,66.9,64.5,30.15,North,360,0.0,0.0,92,0.00,,---,0.00,5.00,VWS V14.01,2013-07-16 09:32:00,
2013-07-16 05:37:00,66.9,64.2,30.14,North,360,0.0,0.0,91,0.00,,---,0.00,7.00,VWS V14.01,2013-07-16 09:37:00,
2013-07-16 05:42:00,66.9,64.2,30.14,North,360,0.0,0.0,91,0.00,,---,0.00,9.00,VWS V14.01,2013-07-16 09:42:00,
2013-07-16 05:47:00,67.0,64.6,30.15,North,360,0.0,0.0,92,0.00,,---,0.00,12.00,VWS V14.01,2013-07-16 09:47:00,
2013-07-16 05:52:00,67.0,64.3,30.15,North,360,0.0,0.0,91,0.00,,---,0.00,18.00,VWS V14.01,2013-07-16 09:52:00,
2013-07-16 05:57:00,67.2,64.5,30.15,North,360,0.0,0.0,91,0.00,,---,0.00,18.00,VWS V14.01,2013-07-16 09:57:00,
2013-07-16 06:02:00,67.2,64.5,30.15,North,360,0.0,0.0,91,0.00,,---,0.00,18.00,VWS V14.01,2013-07-16 10:02:00,
2013-07-16 06:07:00,67.0,64.3,30.15,North,360,0.0,0.0,91,0.00,,---,0.00,18.00,VWS V14.01,2013-07-16 10:07:00,
2013-07-16 06:12:00,67.0,64.3,30.15,North,360,0.0,0.0,91,0.00,,---,0.00,19.00,VWS V14.01,2013-07-16 10:12:00,
2013-07-16 06:17:00,67.0,64.3,30.15,North,360,0.0,0.0,91,0.00,,---,0.00,18.00,VWS V14.01,2013-07-16 10:17:00,
2013-07-16 06:22:00,66.9,64.5,30.15,North,360,0.0,0.0,92,0.00,,---,0.00,21.00,VWS V14.01,2013-07-16 10:22:00,
2013-07-16 06:27:00,67.2,64.8,30.15,North,360,0.0,0.0,92,0.00,,---,0.00,28.00,VWS V14.01,2013-07-16 10:27:00,
2013-07-16 06:32:00,67.2,64.8,30.15,North,360,0.0,0.0,92,0.00,,---,0.00,40.00,VWS V14.01,2013-07-16 10:32:00,
2013-07-16 06:37:00,67.2,64.8,30.15,North,360,0.0,0.0,92,0.00,,---,0.00,28.00,VWS V14.01,2013-07-16 10:37:00,
2013-07-16 06:42:00,67.2,64.8,30.16,North,360,0.0,0.0,92,0.00,,---,0.00,35.00,VWS V14.01,2013-07-16 10:42:00,
2013-07-16 06:47:00,67.4,65.3,30.16,North,360,0.0,0.0,93,0.00,,---,0.00,47.00,VWS V14.01,2013-07-16 10:47:00,
2013-07-16 06:52:00,67.4,65.0,30.16,North,360,0.0,0.0,92,0.00,,---,0.00,63.00,VWS V14.01,2013-07-16 10:52:00,
2013-07-16 06:57:00,67.4,65.0,30.16,North,360,0.0,0.0,92,0.00,,---,0.00,58.00,VWS V14.01,2013-07-16 10:57:00,
2013-07-16 07:02:00,67.5,65.1,30.16,North,360,0.0,0.0,92,0.00,,---,0.00,62.00,VWS V14.01,2013-07-16 11:02:00,
2013-07-16 07:07:00,67.9,65.5,30.16,North,360,0.0,0.0,92,0.00,,---,0.00,69.00,VWS V14.01,2013-07-16 11:07:00,
2013-07-16 07:12:00,68.2,65.8,30.16,North,360,0.0,0.0,92,0.00,,---,0.00,62.00,VWS V14.01,2013-07-16 11:12:00,
2013-07-16 07:17:00,68.4,66.0,30.16,North,360,0.0,0.0,92,0.00,,---,0.00,60.00,VWS V14.01,2013-07-16 11:17:00,
2013-07-16 07:22:00,68.7,66.3,30.16,North,360,0.0,0.0,92,0.00,,---,0.00,56.00,VWS V14.01,2013-07-16 11:22:00,
2013-07-16 07:27:00,69.2,66.5,30.16,North,360,0.0,0.0,91,0.00,,---,0.00,56.00,VWS V14.01,2013-07-16 11:27:00,
2013-07-16 07:32:00,69.7,66.6,30.16,North,360,0.0,0.0,90,0.00,,---,0.00,56.00,VWS V14.01,2013-07-16 11:32:00,
2013-07-16 07:37:00,70.2,66.8,30.16,North,360,0.0,0.0,89,0.00,,---,0.00,56.00,VWS V14.01,2013-07-16 11:37:00,
2013-07-16 07:42:00,70.7,67.0,30.16,North,360,0.0,0.0,88,0.00,,---,0.00,53.00,VWS V14.01,2013-07-16 11:42:00,
2013-07-16 07:47:00,71.2,67.1,30.16,North,360,0.0,0.0,87,0.00,,---,0.00,58.00,VWS V14.01,2013-07-16 11:47:00,
2013-07-16 07:52:00,71.6,67.2,30.16,North,360,0.0,0.0,86,0.00,,---,0.00,60.00,VWS V14.01,2013-07-16 11:52:00,
2013-07-16 07:57:00,71.7,67.3,30.17,North,360,0.0,0.0,86,0.00,,---,0.00,62.00,VWS V14.01,2013-07-16 11:57:00,
2013-07-16 08:02:00,72.1,67.7,30.17,North,360,0.0,0.0,86,0.00,,---,0.00,77.00,VWS V14.01,2013-07-16 12:02:00,
2013-07-16 08:07:00,72.4,67.6,30.17,North,360,0.0,0.0,85,0.00,,---,0.00,134.00,VWS V14.01,2013-07-16 12:07:00,
2013-07-16 08:12:00,72.8,67.3,30.17,North,360,0.0,0.0,83,0.00,,---,0.00,156.00,VWS V14.01,2013-07-16 12:12:00,
2013-07-16 08:17:00,73.3,67.5,30.17,North,360,0.0,0.0,82,0.00,,---,0.00,410.00,VWS V14.01,2013-07-16 12:17:00,
2013-07-16 08:22:00,74.0,67.8,30.16,North,360,0.0,0.0,81,0.00,,---,0.00,425.00,VWS V14.01,2013-07-16 12:22:00,
2013-07-16 08:27:00,74.5,67.9,30.16,North,360,0.0,0.0,80,0.00,,---,0.00,443.00,VWS V14.01,2013-07-16 12:27:00,
2013-07-16 08:32:00,75.0,67.3,30.16,North,360,0.0,0.0,77,0.00,,---,0.00,461.00,VWS V14.01,2013-07-16 12:32:00,
2013-07-16 08:37:00,75.7,67.6,30.16,North,360,0.0,0.0,76,0.00,,---,0.00,476.00,VWS V14.01,2013-07-16 12:37:00,
2013-07-16 08:42:00,76.1,68.0,30.16,North,360,0.0,0.0,76,0.00,,---,0.00,492.00,VWS V14.01,2013-07-16 12:42:00,
2013-07-16 08:47:00,76.4,67.9,30.16,North,360,0.0,0.0,75,0.00,,---,0.00,508.00,VWS V14.01,2013-07-16 12:47:00,
2013-07-16 08:52:00,77.0,67.7,30.16,North,360,0.0,0.0,73,0.00,,---,0.00,526.00,VWS V14.01,2013-07-16 12:52:00,
2013-07-16 08:57:00,77.2,68.3,30.16,North,5,0.0,0.0,74,0.00,,---,0.00,543.00,VWS V14.01,2013-07-16 12:57:00,
2013-07-16 09:02:00,77.5,67.4,30.16,North,5,0.0,0.0,71,0.00,,---,0.00,559.00,VWS V14.01,2013-07-16 13:02:00,
2013-07-16 09:07:00,77.9,68.9,30.16,North,5,0.0,0.0,74,0.00,,---,0.00,575.00,VWS V14.01,2013-07-16 13:07:00,
2013-07-16 09:12:00,78.2,68.4,30.16,North,5,0.0,0.0,72,0.00,,---,0.00,585.00,VWS V14.01,2013-07-16 13:12:00,
2013-07-16 09:17:00,78.6,68.4,30.16,North,360,0.0,0.0,71,0.00,,---,0.00,601.00,VWS V14.01,2013-07-16 13:17:00,
2013-07-16 09:22:00,78.8,69.0,30.16,North,360,0.0,0.0,72,0.00,,---,0.00,615.00,VWS V14.01,2013-07-16 13:22:00,
2013-07-16 09:27:00,79.0,68.8,30.16,North,360,0.0,0.0,71,0.00,,---,0.00,628.00,VWS V14.01,2013-07-16 13:27:00,
2013-07-16 09:32:00,79.5,67.6,30.16,North,360,0.0,0.0,67,0.00,,---,0.00,643.00,VWS V14.01,2013-07-16 13:32:00,
2013-07-16 09:37:00,80.1,68.2,30.16,NNE,26,0.0,0.0,67,0.00,,---,0.00,656.00,VWS V14.01,2013-07-16 13:37:00,
2013-07-16 09:42:00,80.5,69.0,30.16,North,355,0.0,0.0,68,0.00,,---,0.00,670.00,VWS V14.01,2013-07-16 13:42:00,
2013-07-16 09:47:00,80.8,71.3,30.16,North,11,0.0,0.0,73,0.00,,---,0.00,682.00,VWS V14.01,2013-07-16 13:47:00,
2013-07-16 09:52:00,81.2,69.6,30.16,SE,134,0.0,0.0,68,0.00,,---,0.00,694.00,VWS V14.01,2013-07-16 13:52:00,
2013-07-16 09:57:00,81.8,71.1,30.16,NW,304,0.0,0.0,70,0.00,,---,0.00,710.00,VWS V14.01,2013-07-16 13:57:00,
2013-07-16 10:02:00,82.6,69.7,30.16,WNW,286,0.0,0.0,65,0.00,,---,0.00,722.00,VWS V14.01,2013-07-16 14:02:00,
2013-07-16 10:07:00,82.4,69.5,30.16,WNW,286,0.0,0.0,65,0.00,,---,0.00,735.00,VWS V14.01,2013-07-16 14:07:00,
2013-07-16 10:12:00,82.4,69.9,30.16,WNW,284,0.0,0.0,66,0.00,,---,0.00,747.00,VWS V14.01,2013-07-16 14:12:00,
2013-07-16 10:17:00,83.0,70.0,30.16,WNW,293,0.0,0.0,65,0.00,,---,0.00,758.00,VWS V14.01,2013-07-16 14:17:00,
2013-07-16 10:22:00,82.6,67.3,30.16,WNW,294,0.0,0.0,60,0.00,,---,0.00,770.00,VWS V14.01,2013-07-16 14:22:00,
2013-07-16 10:27:00,82.6,70.1,30.16,ENE,61,0.0,0.0,66,0.00,,---,0.00,777.00,VWS V14.01,2013-07-16 14:27:00,
2013-07-16 10:32:00,82.8,69.8,30.16,East,88,0.0,0.0,65,0.00,,---,0.00,784.00,VWS V14.01,2013-07-16 14:32:00,
2013-07-16 10:37:00,83.0,69.6,30.16,ESE,123,0.0,0.0,64,0.00,,---,0.00,802.00,VWS V14.01,2013-07-16 14:37:00,
2013-07-16 10:42:00,83.6,69.2,30.16,NNW,338,0.0,0.0,62,0.00,,---,0.00,805.00,VWS V14.01,2013-07-16 14:42:00,
2013-07-16 10:47:00,83.7,71.1,30.16,ENE,59,0.0,0.0,66,0.00,,---,0.00,819.00,VWS V14.01,2013-07-16 14:47:00,
2013-07-16 10:52:00,83.9,67.6,30.16,North,5,0.0,4.0,58,0.00,,---,0.00,831.00,VWS V14.01,2013-07-16 14:52:00,
2013-07-16 10:57:00,84.1,68.2,30.16,WNW,299,0.0,4.0,59,0.00,,---,0.00,835.00,VWS V14.01,2013-07-16 14:57:00,
2013-07-16 11:02:00,83.7,70.7,30.16,WNW,298,0.0,0.0,65,0.00,,---,0.00,846.00,VWS V14.01,2013-07-16 15:02:00,
2013-07-16 11:07:00,83.9,68.5,30.16,NE,51,0.0,0.0,60,0.00,,---,0.00,860.00,VWS V14.01,2013-07-16 15:07:00,
2013-07-16 11:12:00,84.1,69.7,30.16,NW,315,0.0,0.0,62,0.00,,---,0.00,874.00,VWS V14.01,2013-07-16 15:12:00,
2013-07-16 11:17:00,84.3,68.9,30.16,SW,222,0.0,0.0,60,0.00,,---,0.00,905.00,VWS V14.01,2013-07-16 15:17:00,
2013-07-16 11:22:00,84.1,67.2,30.16,SSW,198,0.0,0.0,57,0.00,,---,0.00,896.00,VWS V14.01,2013-07-16 15:22:00,
2013-07-16 11:27:00,84.3,67.9,30.16,NNE,28,0.0,1.0,58,0.00,,---,0.00,907.00,VWS V14.01,2013-07-16 15:27:00,
2013-07-16 11:32:00,84.3,68.4,30.16,West,261,0.0,0.0,59,0.00,,---,0.00,919.00,VWS V14.01,2013-07-16 15:32:00,
2013-07-16 11:37:00,85.3,65.7,30.16,SW,223,0.0,0.0,52,0.00,,---,0.00,986.00,VWS V14.01,2013-07-16 15:37:00,
2013-07-16 11:42:00,84.1,66.7,30.16,NE,43,0.0,0.0,56,0.00,,---,0.00,984.00,VWS V14.01,2013-07-16 15:42:00,
2013-07-16 11:48:00,84.1,68.2,30.16,ENE,69,0.0,0.0,59,0.00,,---,0.00,163.00,VWS V14.01,2013-07-16 15:48:00,
2013-07-16 11:52:00,83.4,69.0,30.16,ENE,71,0.0,0.0,62,0.00,,---,0.00,285.00,VWS V14.01,2013-07-16 15:52:00,
2013-07-16 11:57:00,82.4,68.1,30.16,ENE,59,0.0,0.0,62,0.00,,---,0.00,255.00,VWS V14.01,2013-07-16 15:57:00,
2013-07-16 12:03:00,82.2,70.6,30.16,NE,55,0.0,0.0,68,0.00,,---,0.00,1009.00,VWS V14.01,2013-07-16 16:03:00,
2013-07-16 12:08:00,83.4,69.0,30.15,ENE,69,0.0,0.0,62,0.00,,---,0.00,962.00,VWS V14.01,2013-07-16 16:08:00,
2013-07-16 12:13:00,84.3,68.9,30.15,NE,39,0.0,4.0,60,0.00,,---,0.00,962.00,VWS V14.01,2013-07-16 16:13:00,
2013-07-16 12:18:00,84.7,68.8,30.15,NW,315,0.0,2.0,59,0.00,,---,0.00,974.00,VWS V14.01,2013-07-16 16:18:00,
2013-07-16 12:23:00,85.1,67.1,30.15,NW,317,1.0,2.0,55,0.00,,---,0.00,954.00,VWS V14.01,2013-07-16 16:23:00,
2013-07-16 12:28:00,85.5,69.6,30.15,WNW,286,0.0,5.0,59,0.00,,---,0.00,953.00,VWS V14.01,2013-07-16 16:28:00,
2013-07-16 12:33:00,85.9,68.9,30.15,North,360,0.0,0.0,57,0.00,,---,0.00,953.00,VWS V14.01,2013-07-16 16:33:00,
2013-07-16 12:38:00,85.9,67.9,30.15,WSW,257,0.0,4.0,55,0.00,,---,0.00,962.00,VWS V14.01,2013-07-16 16:38:00,
2013-07-16 12:43:00,85.9,71.4,30.15,ESE,111,0.0,4.0,62,0.00,,---,0.00,967.00,VWS V14.01,2013-07-16 16:43:00,
2013-07-16 12:48:00,86.1,71.1,30.15,NNW,340,0.0,0.0,61,0.00,,---,0.00,991.00,VWS V14.01,2013-07-16 16:48:00,
2013-07-16 12:53:00,86.1,68.1,30.15,East,96,0.0,1.0,55,0.00,,---,0.00,956.00,VWS V14.01,2013-07-16 16:53:00,
2013-07-16 12:58:00,86.1,69.1,30.15,WSW,239,0.0,4.0,57,0.00,,---,0.00,963.00,VWS V14.01,2013-07-16 16:58:00,
2013-07-16 13:03:00,85.9,68.9,30.15,East,90,3.0,3.0,57,0.00,,---,0.00,969.00,VWS V14.01,2013-07-16 17:03:00,
2013-07-16 13:08:00,85.9,68.4,30.15,NE,34,4.0,4.0,56,0.00,,---,0.00,1027.00,VWS V14.01,2013-07-16 17:08:00,
2013-07-16 13:13:00,85.7,67.7,30.15,NW,304,0.0,4.0,55,0.00,,---,0.00,977.00,VWS V14.01,2013-07-16 17:13:00,
2013-07-16 13:18:00,85.7,68.7,30.15,NE,51,0.0,0.0,57,0.00,,---,0.00,951.00,VWS V14.01,2013-07-16 17:18:00,
2013-07-16 13:23:00,85.9,70.9,30.15,NE,51,0.0,0.0,61,0.00,,---,0.00,958.00,VWS V14.01,2013-07-16 17:23:00,
2013-07-16 13:28:00,85.5,71.9,30.14,East,90,0.0,4.0,64,0.00,,---,0.00,958.00,VWS V14.01,2013-07-16 17:28:00,
2013-07-16 13:33:00,85.9,67.3,30.14,NNE,24,0.0,0.0,54,0.00,,---,0.00,962.00,VWS V14.01,2013-07-16 17:33:00,
2013-07-16 13:38:00,85.9,69.9,30.14,NNE,14,0.0,1.0,59,0.00,,---,0.00,942.00,VWS V14.01,2013-07-16 17:38:00,
2013-07-16 13:43:00,85.9,67.9,30.14,SSW,207,0.0,1.0,55,0.00,,---,0.00,942.00,VWS V14.01,2013-07-16 17:43:00,
2013-07-16 13:48:00,85.9,67.9,30.14,NE,43,0.0,3.0,55,0.00,,---,0.00,939.00,VWS V14.01,2013-07-16 17:48:00,
2013-07-16 13:53:00,86.3,68.8,30.13,NNE,28,0.0,4.0,56,0.00,,---,0.00,939.00,VWS V14.01,2013-07-16 17:53:00,
2013-07-16 13:58:00,85.9,69.9,30.14,ENE,60,0.0,4.0,59,0.00,,---,0.00,932.00,VWS V14.01,2013-07-16 17:58:00,
2013-07-16 14:03:00,86.3,69.3,30.14,NW,318,0.0,0.0,57,0.00,,---,0.00,928.00,VWS V14.01,2013-07-16 18:03:00,
2013-07-16 14:08:00,86.6,64.6,30.13,SSE,155,0.0,1.0,48,0.00,,---,0.00,893.00,VWS V14.01,2013-07-16 18:08:00,
2013-07-16 14:13:00,85.9,70.4,30.14,NE,56,0.0,4.0,60,0.00,,---,0.00,951.00,VWS V14.01,2013-07-16 18:13:00,
2013-07-16 14:18:00,85.7,67.2,30.14,East,79,0.0,3.0,54,0.00,,---,0.00,914.00,VWS V14.01,2013-07-16 18:18:00,
2013-07-16 14:23:00,86.6,68.5,30.14,NNE,21,2.0,3.0,55,0.00,,---,0.00,914.00,VWS V14.01,2013-07-16 18:23:00,
2013-07-16 14:28:00,86.1,66.4,30.14,West,269,0.0,3.0,52,0.00,,---,0.00,895.00,VWS V14.01,2013-07-16 18:28:00,
2013-07-16 14:33:00,86.3,68.2,30.14,SW,219,0.0,0.0,55,0.00,,---,0.00,904.00,VWS V14.01,2013-07-16 18:33:00,
2013-07-16 14:38:00,86.3,67.2,30.13,NW,306,0.0,4.0,53,0.00,,---,0.00,911.00,VWS V14.01,2013-07-16 18:38:00,
2013-07-16 14:43:00,86.3,70.8,30.13,WSW,238,0.0,4.0,60,0.00,,---,0.00,909.00,VWS V14.01,2013-07-16 18:43:00,
2013-07-16 14:48:00,86.1,66.4,30.14,WSW,245,0.0,0.0,52,0.00,,---,0.00,1011.00,VWS V14.01,2013-07-16 18:48:00,
2013-07-16 14:53:00,85.3,67.3,30.13,ENE,64,0.0,2.0,55,0.00,,---,0.00,225.00,VWS V14.01,2013-07-16 18:53:00,
2013-07-16 14:58:00,85.5,70.0,30.14,NE,36,0.0,8.0,60,0.00,,---,0.00,993.00,VWS V14.01,2013-07-16 18:58:00,
2013-07-16 15:03:00,84.9,69.5,30.14,NE,49,2.0,2.0,60,0.00,,---,0.00,993.00,VWS V14.01,2013-07-16 19:03:00,
2013-07-16 15:08:00,85.3,66.2,30.14,WSW,242,0.0,2.0,53,0.00,,---,0.00,860.00,VWS V14.01,2013-07-16 19:08:00,
2013-07-16 15:13:00,85.5,67.5,30.14,WSW,244,0.0,2.0,55,0.00,,---,0.00,837.00,VWS V14.01,2013-07-16 19:13:00,
2013-07-16 15:18:00,85.7,70.2,30.13,West,265,1.0,4.0,60,0.00,,---,0.00,835.00,VWS V14.01,2013-07-16 19:18:00,
2013-07-16 15:19:00,85.7,65.5,30.13,NE,39,0.0,4.0,51,0.00,,---,0.00,837.00,VWS V14.01,2013-07-16 19:19:00,
2013-07-16 15:24:00,86.1,68.1,30.13,NW,318,0.0,4.0,55,0.00,,---,0.00,891.00,VWS V14.01,2013-07-16 19:24:00,
2013-07-16 15:29:00,85.5,68.0,30.13,SW,229,0.0,4.0,56,0.00,,---,0.00,149.00,VWS V14.01,2013-07-16 19:29:00,
2013-07-16 15:34:00,85.5,68.5,30.13,NE,34,0.0,0.0,57,0.00,,---,0.00,791.00,VWS V14.01,2013-07-16 19:34:00,
2013-07-16 15:39:00,84.9,70.0,30.13,NNE,31,0.0,1.0,61,0.00,,---,0.00,742.00,VWS V14.01,2013-07-16 19:39:00,
2013-07-16 15:44:00,85.3,68.9,30.13,ESE,109,0.0,1.0,58,0.00,,---,0.00,807.00,VWS V14.01,2013-07-16 19:44:00,
2013-07-16 15:49:00,85.3,68.3,30.13,ENE,61,0.0,0.0,57,0.00,,---,0.00,768.00,VWS V14.01,2013-07-16 19:49:00,
2013-07-16 15:54:00,85.1,68.7,30.13,NNE,16,1.0,1.0,58,0.00,,---,0.00,729.00,VWS V14.01,2013-07-16 19:54:00,
2013-07-16 15:59:00,85.3,69.4,30.13,ENE,57,1.0,5.0,59,0.00,,---,0.00,717.00,VWS V14.01,2013-07-16 19:59:00,
2013-07-16 16:04:00,84.7,68.8,30.13,NNE,30,0.0,1.0,59,0.00,,---,0.00,700.00,VWS V14.01,2013-07-16 20:04:00,
2013-07-16 16:09:00,84.7,70.2,30.13,ENE,63,0.0,1.0,62,0.00,,---,0.00,684.00,VWS V14.01,2013-07-16 20:09:00,
2013-07-16 16:14:00,84.9,68.0,30.13,ENE,74,0.0,1.0,57,0.00,,---,0.00,675.00,VWS V14.01,2013-07-16 20:14:00,
2013-07-16 16:19:00,83.9,68.1,30.13,ENE,74,0.0,0.0,59,0.00,,---,0.00,555.00,VWS V14.01,2013-07-16 20:19:00,
2013-07-16 16:24:00,83.7,68.3,30.13,SW,224,0.0,2.0,60,0.00,,---,0.00,220.00,VWS V14.01,2013-07-16 20:24:00,
2013-07-16 16:29:00,83.9,69.5,30.13,SW,224,0.0,2.0,62,0.00,,---,0.00,158.00,VWS V14.01,2013-07-16 20:29:00,
2013-07-16 16:34:00,84.3,68.4,30.13,NNE,31,0.0,1.0,59,0.00,,---,0.00,97.00,VWS V14.01,2013-07-16 20:34:00,
2013-07-16 16:39:00,83.7,69.8,30.13,NNE,24,0.0,4.0,63,0.00,,---,0.00,113.00,VWS V14.01,2013-07-16 20:39:00,
2013-07-16 16:44:00,83.0,68.7,30.13,NNE,24,0.0,4.0,62,0.00,,---,0.00,123.00,VWS V14.01,2013-07-16 20:44:00,
2013-07-16 16:49:00,82.2,68.8,30.13,NE,38,0.0,0.0,64,0.00,,---,0.00,98.00,VWS V14.01,2013-07-16 20:49:00,
2013-07-16 16:54:00,82.2,67.4,30.13,ENE,73,0.0,0.0,61,0.00,,---,0.00,62.00,VWS V14.01,2013-07-16 20:54:00,
2013-07-16 16:59:00,81.6,67.8,30.13,ENE,72,0.0,0.0,63,0.00,,---,0.00,47.00,VWS V14.01,2013-07-16 20:59:00,
2013-07-16 17:04:00,81.2,66.9,30.13,NNE,30,0.0,0.0,62,0.00,,---,0.00,72.00,VWS V14.01,2013-07-16 21:04:00,
2013-07-16 17:09:00,81.4,68.1,30.13,NNE,15,0.0,2.0,64,0.00,,---,0.00,111.00,VWS V14.01,2013-07-16 21:09:00,
2013-07-16 17:14:00,81.8,68.0,30.13,NNE,19,0.0,2.0,63,0.00,,---,0.00,88.00,VWS V14.01,2013-07-16 21:14:00,
2013-07-16 17:19:00,82.4,66.2,30.13,ENE,63,0.0,0.0,58,0.00,,---,0.00,76.00,VWS V14.01,2013-07-16 21:19:00,
2013-07-16 17:24:00,82.8,68.5,30.13,ENE,63,0.0,0.0,62,0.00,,---,0.00,63.00,VWS V14.01,2013-07-16 21:24:00,
2013-07-16 17:29:00,82.8,68.0,30.13,ENE,59,0.0,0.0,61,0.00,,---,0.00,62.00,VWS V14.01,2013-07-16 21:29:00,
2013-07-16 17:34:00,83.0,66.7,30.13,ENE,60,0.0,0.0,58,0.00,,---,0.00,63.00,VWS V14.01,2013-07-16 21:34:00,
2013-07-16 17:39:00,83.0,68.7,30.13,ENE,67,0.0,0.0,62,0.00,,---,0.00,63.00,VWS V14.01,2013-07-16 21:39:00,
2013-07-16 17:44:00,83.0,68.2,30.13,ENE,76,0.0,2.0,61,0.00,,---,0.00,76.00,VWS V14.01,2013-07-16 21:44:00,
2013-07-16 17:49:00,83.2,68.8,30.13,ENE,74,0.0,0.0,62,0.00,,---,0.00,90.00,VWS V14.01,2013-07-16 21:49:00,
2013-07-16 17:54:00,82.8,69.4,30.12,SSW,213,0.0,1.0,64,0.00,,---,0.00,91.00,VWS V14.01,2013-07-16 21:54:00,
2013-07-16 17:59:00,82.8,68.5,30.12,SSW,206,0.0,1.0,62,0.00,,---,0.00,102.00,VWS V14.01,2013-07-16 21:59:00,
2013-07-16 18:04:00,83.4,69.0,30.12,SSW,206,0.0,0.0,62,0.00,,---,0.00,104.00,VWS V14.01,2013-07-16 22:04:00,
2013-07-16 18:09:00,83.4,69.0,30.12,SSW,206,0.0,0.0,62,0.00,,---,0.00,97.00,VWS V14.01,2013-07-16 22:09:00,
2013-07-16 18:14:00,83.2,69.8,30.12,North,355,0.0,3.0,64,0.00,,---,0.00,74.00,VWS V14.01,2013-07-16 22:14:00,
2013-07-16 18:19:00,83.2,67.9,30.13,NNE,17,0.0,0.0,60,0.00,,---,0.00,46.00,VWS V14.01,2013-07-16 22:19:00,
2013-07-16 18:24:00,82.8,67.5,30.13,NNE,24,0.0,0.0,60,0.00,,---,0.00,53.00,VWS V14.01,2013-07-16 22:24:00,
2013-07-16 18:29:00,82.8,67.5,30.13,NNE,27,0.0,0.0,60,0.00,,---,0.00,67.00,VWS V14.01,2013-07-16 22:29:00,
2013-07-16 18:34:00,82.8,67.5,30.13,NNE,27,0.0,0.0,60,0.00,,---,0.00,60.00,VWS V14.01,2013-07-16 22:34:00,
2013-07-16 18:39:00,82.4,68.6,30.13,NNE,28,0.0,0.0,63,0.00,,---,0.00,54.00,VWS V14.01,2013-07-16 22:39:00,
2013-07-16 18:44:00,82.4,68.1,30.13,NNE,28,0.0,0.0,62,0.00,,---,0.00,42.00,VWS V14.01,2013-07-16 22:44:00,
2013-07-16 18:49:00,82.2,68.8,30.13,NE,38,0.0,1.0,64,0.00,,---,0.00,37.00,VWS V14.01,2013-07-16 22:49:00,
2013-07-16 18:54:00,82.0,68.2,30.13,NE,38,0.0,1.0,63,0.00,,---,0.00,30.00,VWS V14.01,2013-07-16 22:54:00,
2013-07-16 18:59:00,81.8,68.9,30.13,NE,38,0.0,1.0,65,0.00,,---,0.00,28.00,VWS V14.01,2013-07-16 22:59:00,
2013-07-16 19:04:00,81.4,69.0,30.13,NE,38,0.0,0.0,66,0.00,,---,0.00,26.00,VWS V14.01,2013-07-16 23:04:00,
2013-07-16 19:09:00,81.4,68.5,30.13,NE,38,0.0,0.0,65,0.00,,---,0.00,25.00,VWS V14.01,2013-07-16 23:09:00,
2013-07-16 19:14:00,81.2,68.3,30.13,NE,38,0.0,0.0,65,0.00,,---,0.00,23.00,VWS V14.01,2013-07-16 23:14:00,
2013-07-16 19:19:00,80.8,68.8,30.13,NE,38,0.0,0.0,67,0.00,,---,0.00,23.00,VWS V14.01,2013-07-16 23:19:00,
2013-07-16 19:24:00,80.7,69.2,30.13,NE,38,0.0,0.0,68,0.00,,---,0.00,19.00,VWS V14.01,2013-07-16 23:24:00,
2013-07-16 19:29:00,80.5,69.4,30.13,NE,38,0.0,0.0,69,0.00,,---,0.00,18.00,VWS V14.01,2013-07-16 23:29:00,
2013-07-16 19:34:00,80.3,69.6,30.14,NE,38,0.0,0.0,70,0.00,,---,0.00,18.00,VWS V14.01,2013-07-16 23:34:00,
2013-07-16 19:39:00,80.1,69.9,30.14,NE,38,0.0,0.0,71,0.00,,---,0.00,16.00,VWS V14.01,2013-07-16 23:39:00,
2013-07-16 19:44:00,79.9,70.1,30.14,NE,38,0.0,0.0,72,0.00,,---,0.00,14.00,VWS V14.01,2013-07-16 23:44:00,
2013-07-16 19:49:00,79.5,70.9,30.14,NE,38,0.0,0.0,75,0.00,,---,0.00,12.00,VWS V14.01,2013-07-16 23:49:00,
2013-07-16 19:54:00,79.2,70.6,30.14,NE,38,0.0,0.0,75,0.00,,---,0.00,11.00,VWS V14.01,2013-07-16 23:54:00,
2013-07-16 19:59:00,79.0,70.4,30.14,NE,38,0.0,0.0,75,0.00,,---,0.00,9.00,VWS V14.01,2013-07-16 23:59:00,
2013-07-16 20:04:00,78.8,70.6,30.14,NE,38,0.0,0.0,76,0.00,,---,0.00,7.00,VWS V14.01,2013-07-17 00:04:00,
2013-07-16 20:09:00,78.4,70.2,30.14,NE,38,0.0,0.0,76,0.00,,---,0.00,7.00,VWS V14.01,2013-07-17 00:09:00,
2013-07-16 20:14:00,78.1,70.3,30.14,NE,38,0.0,0.0,77,0.00,,---,0.00,5.00,VWS V14.01,2013-07-17 00:14:00,
2013-07-16 20:19:00,77.7,69.9,30.14,NE,38,0.0,0.0,77,0.00,,---,0.00,0.00,VWS V14.01,2013-07-17 00:19:00,
2013-07-16 20:24:00,77.3,69.5,30.14,NE,38,0.0,0.0,77,0.00,,---,0.00,0.00,VWS V14.01,2013-07-17 00:24:00,
2013-07-16 20:29:00,77.0,70.0,30.14,NE,38,0.0,0.0,79,0.00,,---,0.00,0.00,VWS V14.01,2013-07-17 00:29:00,
2013-07-16 20:34:00,76.6,70.0,30.14,NE,38,0.0,0.0,80,0.00,,---,0.00,0.00,VWS V14.01,2013-07-17 00:34:00,
2013-07-16 20:39:00,76.3,69.7,30.14,NE,38,0.0,0.0,80,0.00,,---,0.00,0.00,VWS V14.01,2013-07-17 00:39:00,
2013-07-16 20:44:00,75.9,68.9,30.15,NE,38,0.0,0.0,79,0.00,,---,0.00,0.00,VWS V14.01,2013-07-17 00:44:00,
2013-07-16 20:49:00,75.7,69.1,30.15,NE,39,0.0,0.0,80,0.00,,---,0.00,0.00,VWS V14.01,2013-07-17 00:49:00,
2013-07-16 20:54:00,75.4,68.1,30.15,NE,39,0.0,0.0,78,0.00,,---,0.00,0.00,VWS V14.01,2013-07-17 00:54:00,
2013-07-16 20:59:00,75.2,67.9,30.15,NE,39,0.0,0.0,78,0.00,,---,0.00,0.00,VWS V14.01,2013-07-17 00:59:00,
2013-07-16 21:04:00,75.0,67.7,30.15,NE,38,0.0,0.0,78,0.00,,---,0.00,0.00,VWS V14.01,2013-07-17 01:04:00,
2013-07-16 21:09:00,74.9,67.9,30.15,NE,39,0.0,0.0,79,0.00,,---,0.00,0.00,VWS V14.01,2013-07-17 01:09:00,
2013-07-16 21:14:00,74.7,67.4,30.15,NE,43,0.0,0.0,78,0.00,,---,0.00,0.00,VWS V14.01,2013-07-17 01:14:00,
2013-07-16 21:20:00,74.7,67.0,30.16,NE,43,0.0,0.0,77,0.00,,---,0.00,0.00,VWS V14.01,2013-07-17 01:20:00,
2013-07-16 21:25:00,74.5,66.8,30.16,NE,43,0.0,0.0,77,0.00,,---,0.00,0.00,VWS V14.01,2013-07-17 01:25:00,
2013-07-16 21:30:00,74.3,67.0,30.16,NE,43,0.0,0.0,78,0.00,,---,0.00,0.00,VWS V14.01,2013-07-17 01:30:00,
2013-07-16 21:35:00,74.2,66.9,30.16,NE,43,0.0,0.0,78,0.00,,---,0.00,0.00,VWS V14.01,2013-07-17 01:35:00,
2013-07-16 21:40:00,74.0,67.1,30.16,NE,43,0.0,0.0,79,0.00,,---,0.00,0.00,VWS V14.01,2013-07-17 01:40:00,
2013-07-16 21:45:00,73.6,66.7,30.16,NE,43,0.0,0.0,79,0.00,,---,0.00,0.00,VWS V14.01,2013-07-17 01:45:00,
2013-07-16 21:50:00,73.5,66.6,30.16,NE,43,0.0,0.0,79,0.00,,---,0.00,0.00,VWS V14.01,2013-07-17 01:50:00,
2013-07-16 21:55:00,73.3,66.0,30.16,NE,43,0.0,0.0,78,0.00,,---,0.00,0.00,VWS V14.01,2013-07-17 01:55:00,
2013-07-16 22:00:00,73.1,65.8,30.16,NE,43,0.0,0.0,78,0.00,,---,0.00,0.00,VWS V14.01,2013-07-17 02:00:00,
2013-07-16 22:05:00,73.1,65.8,30.16,NE,43,0.0,0.0,78,0.00,,---,0.00,0.00,VWS V14.01,2013-07-17 02:05:00,
2013-07-16 22:10:00,72.9,65.7,30.16,NE,43,0.0,0.0,78,0.00,,---,0.00,0.00,VWS V14.01,2013-07-17 02:10:00,
2013-07-16 22:15:00,72.9,65.7,30.16,NE,43,0.0,0.0,78,0.00,,---,0.00,0.00,VWS V14.01,2013-07-17 02:15:00,
2013-07-16 22:20:00,72.8,65.9,30.16,NE,43,0.0,0.0,79,0.00,,---,0.00,0.00,VWS V14.01,2013-07-17 02:20:00,